User: anonymous   Login
Location: Carbonear
(47.7333°N, 53.2500°W)
Time: 13:18:26
(UTC+00:00)
Language:

ITUPSAT 1 - Orbit

View from above orbital plane
View from above orbital plane
View from above satellite
View from above satellite

Ground track
Ground track

The orbit data is extracted from the following two-line orbital elements,

1 35935U 09051E   22341.38050428  .00000683  00000-0  16557-3 0  9996
2 35935  98.5476 203.4757 0006918 251.5757 108.4688 14.56189622701041
Epoch (UTC): 07 December 2022 09:07:55
Eccentricity: 0.0006918
inclination: 98.5476°
perigee height: 700 km
apogee height: 710 km
right ascension of ascending node: 203.4757°
argument of perigee: 251.5757°
revolutions per day: 14.56189622
mean anomaly at epoch: 108.4688°
orbit number at epoch: 70104

The dashed part of the orbit path shows where the satellite is in the earth's shadow,  

DLR